Tegucigalpa, Honduras

11:01 AM CST on August 23, 2017 (GMT -0600)
Toncontin International

Weather History for MHTG - March, 2013

Change the Weather History Date:

Monday, March 4, 2013

  Actual Average Record
Temperature  
Mean Temperature 66 °F -  
Max Temperature 82 °F 83 °F 91 °F (2001)
Min Temperature 49 °F 60 °F 49 °F (2013)
Growing Degree Days 16 (Base 50)    
Moisture  
Dew Point 49 °F    
Average Humidity 59    
Maximum Humidity 89    
Minimum Humidity 21    
Precipitation  
Precipitation 0.00 in 0.02 in - ()
Sea Level Pressure  
Sea Level Pressure 30.13 in    
Wind  
Wind Speed 7 mph ()    
Max Wind Speed 17 mph    
Max Gust Speed -    
Visibility 6.6 miles    
Events      
Averages and records for this station are not official NWS values.
T = Trace of Precipitation, MM = Missing Value Source: Averaged Metar Reports

Daily Weather History Graph

Daily Weather History Graph

Search for Another Location

Airport or City:

Trip Planner

Search our weather history database for the weather conditions in past years. The results will help you decide how hot, cold, wet, or windy it might be!

Date:

Astronomy

Mar. 04, 2013 Rise Set
Actual Time 6:03 AM CST 5:57 PM CST
Civil Twilight 5:41 AM CST 6:19 PM CST
Nautical Twilight 5:17 AM CST 6:43 PM CST
Astronomical Twilight 4:52 AM CST 7:08 PM CST
Moon No Moon Rise 11:18 AM CST (3/4)
Length of Visible Light 12h 37m
Length of Day
11h 54m
Waning Gibbous, 52% of the Moon is Illuminated
Mar 4
Waning Gibbous
Mar 4
Last Quarter
Mar 11
New
Mar 19
First Quarter
Mar 27
Full

Hourly Weather History & Observations

Time (CST) Temp. Dew Point Humidity Pressure Visibility Wind Dir Wind Speed Gust Speed Precip Events Conditions
12:00 AM 54 °F 48 °F 74% 30.20 in 6 mi NNW 5.8 mph - -   Haze
12:00 AM 53.6 °F 48.2 °F 82% 30.24 in 6.2 mi NNW 5.8 mph - N/A   Scattered Clouds
1:00 AM 55.4 °F 48.2 °F 77% 30.21 in 6.2 mi NNW 2.3 mph - N/A   Partly Cloudy
2:00 AM 53.6 °F 50.0 °F 88% 30.21 in 6.2 mi NNW 3.5 mph - N/A   Partly Cloudy
3:00 AM 53 °F 48 °F 76% 30.14 in 6 mi NNW 5.8 mph - -   Haze
3:00 AM 53.6 °F 48.2 °F 82% 30.18 in 6.2 mi NNW 5.8 mph - N/A   Partly Cloudy
4:00 AM 53.6 °F 48.2 °F 82% 30.18 in 6.2 mi NNW 4.6 mph - N/A   Scattered Clouds
5:00 AM 53.6 °F 48.2 °F 82% 30.18 in 6.2 mi WNW 4.6 mph - N/A   Scattered Clouds
6:00 AM 51 °F 49 °F 89% 30.17 in 6 mi West 3.5 mph - -   Haze
6:00 AM 51.8 °F 48.2 °F 88% 30.21 in 6.2 mi West 3.5 mph - N/A   Partly Cloudy
7:00 AM 55.4 °F 50.0 °F 82% 30.21 in 6.2 mi West 3.5 mph - N/A   Mostly Cloudy
8:00 AM 60.8 °F 50.0 °F 68% 30.24 in 6.2 mi North 10.4 mph - N/A   Mostly Cloudy
9:00 AM 64 °F 49 °F 49% 30.12 in 9 mi North 17.3 mph - -   Haze
9:00 AM 64.4 °F 50.0 °F 59% 30.24 in 6.2 mi North 17.3 mph - N/A   Partly Cloudy
10:00 AM 68.0 °F 48.2 °F 49% 30.21 in - North 16.1 mph - N/A   Clear
11:00 AM 71.6 °F 48.2 °F 43% 30.18 in - North 15.0 mph - N/A   Clear
12:00 PM 76 °F 47 °F 26% 29.95 in 11 mi NNW 16.1 mph - -   Haze
12:00 PM 75.2 °F 48.2 °F 38% 30.15 in - NNW 16.1 mph - N/A   Clear
1:00 PM 78.8 °F 48.2 °F 34% 30.09 in - NNW 13.8 mph - N/A   Clear
2:00 PM 80.6 °F 48.2 °F 32% 30.06 in 6.2 mi North 15.0 mph - N/A   Partly Cloudy
3:00 PM 82 °F 49 °F 21% 29.81 in 9 mi North 13.8 mph - -   Haze
3:00 PM 82.4 °F 48.2 °F 30% 30.04 in 6.2 mi North 13.8 mph - N/A   Partly Cloudy
4:00 PM 80.6 °F 48.2 °F 32% 30.04 in 6.2 mi North 11.5 mph - N/A   Partly Cloudy
5:00 PM 78.8 °F 50.0 °F 36% 30.04 in 6.2 mi NNE 9.2 mph - N/A   Partly Cloudy
6:00 PM 71.6 °F 48.2 °F 43% 30.06 in 6.2 mi ENE 9.2 mph - N/A   Scattered Clouds
7:00 PM 68.0 °F 48.2 °F 49% 30.09 in - NNE 3.5 mph - N/A   Clear
8:00 PM 68.0 °F 50.0 °F 52% 30.12 in - NNE 5.8 mph - N/A   Clear
9:00 PM 66 °F 53 °F 54% 30.02 in 6 mi NNE 5.8 mph - -   Haze
9:00 PM 66.2 °F 53.6 °F 64% 30.15 in 6.2 mi NNE 5.8 mph - N/A   Partly Cloudy
10:00 PM 64.4 °F 53.6 °F 68% 30.18 in 6.2 mi North 6.9 mph - N/A   Partly Cloudy
11:00 PM 62.6 °F 53.6 °F 72% 30.18 in 6.2 mi North 6.9 mph - N/A   Partly Cloudy